SCP
0 0 0 0 0 0 1 3 4 3 3 2 2 1 1 1 1 0 0 0 0 0 0 0 0 0 0 0 0 0 0 0 0 0 0 0 0 0 0 0 0 0 0
0 0 0 0 0 0 0 3 2 2 2 3 2 1 1 1 1 0 0 0 0 0 0 0 0 0 0 0 0 0 0 0 0 0 0 0 0 0 0 0 0 0 0
0 0 0 0 0 0 2 3 2 1 2 2 0 0 0 0 0 0 0 0 0 0 0 0 0 0 0 0 0 0 0 0 0 0 0 0 0 0 0 0 0 0 0
0 0 0 0 0 0 1 2 2 1 1 1 1 0 0 0 0 0 0 0 0 0 0 0 0 0 0 0 0 0 0 0 0 0 0 0 0 0 0 0 0 0 0
0 0 0 0 0 0 1 2 2 1 1 1 0 0 0 0 0 0 0 0 0 0 0 0 0 0 0 0 0 0 0 0 0 0 0 0 0 0 0 0 0 0 0
0 0 0 0 0 0 2 3 2 0 1 1 0 0 0 0 0 0 0 0 0 0 0 0 0 0 0 0 0 0 0 0 0 0 0 0 0 0 0 0 0 0 0
0 0 0 0 0 0 0 2 1 1 1 0 0 0 0 0 0 0 0 0 0 0 0 0 0 0 0 0 0 0 0 0 0 0 0 0 0 0 0 0 0 0 0
0 0 0 0 0 0 0 1 1 1 1 0 0 0 0 0 0 0 0 0 0 0 0 0 0 0 0 0 0 0 0 0 0 0 0 0 0 0 0 0 0 0 0
-0 0 0 0 0 0 0 1 1 1 0 0 0 0 0 0 0 0 0 0 0 0 0 0 0 0 0 0 0 0 0 0 0 0 0 0 0 0 0 0 0 0 0
0 -0 0 0 0 0 0 0 0 1 1 0 0 0 0 0 0 0 0 0 0 0 0 0 0 0 0 0 0 0 0 0 0 0 0 0 0 0 0 0 0 0 0
0 0 0 0 0 0 0 0 0 1 1 0 0 0 0 0 0 0 0 0 0 0 0 0 0 0 0 0 0 0 0 0 0 0 0 0 0 0 0 0 0 0 0
0 0 0 0 0 0 0 0 0 0 0 0 0 0 0 0 0 0 0 0 0 0 0 0 0 0 0 0 0 0 0 0 0 0 0 0 0 0 0 0 0 0 0
0 0 0 0 0 0 0 0 0 0 -0 0 0 0 0 0 0 0 0 0 0 0 0 0 0 0 0 0 0 0 0 0 0 0 0 0 0 0 0 0 0 0 0
0 0 0 0 0 0 0 0 0 0 0 0 0 0 0 0 0 0 0 0 0 0 0 0 0 0 0 0 0 0 0 0 0 0 0 0 0 0 0 0 0 0 0
0 -0 -0 0 0 0 0 0 0 0 0 0 0 0 0 0 0 0 0 0 0 0 0 0 0 0 0 0 0 0 0 0 0 0 0 0 0 0 0 0 0 0 0
-0 0 -0 0 0 0 0 0 0 0 0 0 0 0 0 0 0 0 0 0 0 0 0 0 0 0 0 0 0 0 0 0 0 0 0 0 0 0 0 0 0 0 0
-0 -0 -0 -0 0 0 0 0 0 0 0 0 0 0 0 0 0 0 0 0 0 0 0 0 0 0 0 0 0 0 0 0 0 0 0 0 0 0 0 0 0 0 0
0 0 -0 0 0 0 0 0 0 0 0 0 0 0 0 0 0 0 0 0 0 0 0 0 0 0 0 0 0 0 0 0 0 0 0 0 0 0 0 0 0 0 0
0 0 0 0 0 0 0 0 0 0 0 0 0 0 0 0 0 0 0 0 0 0 0 0 0 0 0 0 0 0 0 0 0 0 0 0 0 0 0 0 0 0 0
0 0 0 0 0 0 0 0 0 0 0 0 0 0 0 0 0 0 0 0 0 0 0 0 0 0 0 0 0 0 0 0 0 0 0 0 0 0 0 0 0 0 0
0 0 0 0 0 0 0 0 0 0 0 0 0 0 0 0 0 0 0 0 0 0 0 0 0 0 0 0 0 0 0 0 0 0 0 0 0 0 0 0 0 0 0
0 0 0 0 0 0 0 0 0 0 0 0 0 0 0 0 0 0 0 0 0 0 0 0 0 0 0 0 0 0 0 0 0 0 0 0 0 0 0 0 0 0 0
0 0 0 0 0 0 0 0 0 0 0 0 0 0 0 0 0 0 0 0 0 0 0 0 0 0 0 0 0 0 0 0 0 0 0 0 0 0 0 0 0 0 0
0 0 0 0 0 0 0 0 0 0 0 0 0 0 0 0 0 0 0 0 0 0 0 0 0 0 0 0 0 0 0 0 0 0 0 0 0 0 0 0 0 0 0
0 0 0 0 0 0 0 0 0 0 0 0 0 0 0 0 0 0 0 0 0 0 0 0 0 0 0 0 0 0 0 0 0 0 0 0 0 0 0 0 0 0 0
0 0 0 0 0 0 0 0 0 0 0 0 0 0 0 0 0 0 0 0 0 0 0 0 0 0 0 0 0 0 0 0 0 0 0 0 0 0 0 0 0 0 0
Wind_Speed_500mb
84 84 76 69 59 79 88 86 75 81 84 81 73 71 71 70 62 57 54 50 45 44 48 49 46 47 51 53 54 62 62 60 59 52 65 62 62 52 39 34 30 23 19
87 91 87 69 66 52 79 86 84 74 83 91 90 79 71 67 61 63 60 53 49 48 49 50 50 49 50 52 55 62 60 62 63 59 80 48 61 58 43 41 32 27 23
68 85 81 73 67 62 53 77 86 75 95 99 91 75 62 61 57 56 60 59 56 53 51 48 50 52 55 57 57 66 65 68 68 65 57 41 28 59 47 40 38 35 28
54 36 48 61 62 66 54 72 85 86 97 104 94 77 70 73 65 59 58 54 56 55 53 53 50 50 55 58 58 62 69 66 61 79 81 53 60 54 36 48 47 39 40
54 47 30 28 36 39 47 75 89 90 98 98 89 76 68 69 58 49 48 50 56 52 48 51 51 52 52 53 56 62 65 59 83 89 79 57 59 60 51 51 58 53 50
64 54 45 19 7 26 43 82 93 90 99 91 83 72 68 62 53 48 48 44 45 46 47 48 50 49 51 55 54 57 65 70 84 85 86 72 60 64 51 38 59 61 56
61 61 63 39 9 29 53 67 84 89 82 85 72 67 61 55 49 45 42 43 44 42 44 46 48 49 50 55 54 58 61 75 93 94 81 80 58 55 53 34 51 68 60
59 55 53 47 23 12 58 54 63 78 83 78 70 59 50 47 41 42 39 36 35 38 42 46 48 49 48 50 54 62 69 81 88 95 85 75 64 48 48 55 48 38 63
52 52 52 49 39 12 44 64 76 88 77 73 63 54 51 46 47 36 32 30 31 38 45 46 42 43 47 49 59 71 78 76 93 90 90 82 71 52 50 47 49 44 36
42 54 56 49 43 21 22 42 68 74 68 64 56 50 47 43 42 33 33 31 31 36 38 40 42 42 44 40 39 60 74 80 80 99 87 86 82 64 45 40 43 35 29
51 53 55 49 41 32 27 21 30 48 49 50 50 49 46 41 41 33 33 31 29 35 38 34 34 31 33 24 25 62 49 68 82 86 88 79 74 74 51 43 41 32 36
46 49 52 51 47 46 40 11 5 10 23 40 47 49 41 43 39 36 35 31 29 29 28 28 28 27 26 27 28 35 48 65 75 93 79 62 62 61 51 45 36 37 36
51 56 55 54 51 45 38 32 27 51 46 43 57 51 47 42 41 37 31 32 28 26 27 25 25 27 28 32 28 23 32 50 60 80 79 68 65 57 44 45 47 51 49
50 53 56 53 50 43 33 25 18 41 48 48 65 57 55 45 42 39 37 33 31 30 29 28 27 27 30 31 28 29 32 47 56 54 65 64 59 54 56 59 61 60 63
50 53 52 51 49 46 39 27 21 20 37 46 62 62 55 48 44 37 33 33 35 32 30 30 31 25 30 34 35 34 32 42 54 60 65 63 64 66 66 64 65 64 49
42 46 48 48 50 48 45 35 25 20 31 42 38 50 50 45 44 40 41 37 34 33 32 31 32 33 27 33 31 37 42 43 47 54 50 48 51 52 52 53 47 40 37
35 41 45 46 42 40 40 39 32 19 20 31 37 45 48 46 50 52 54 42 40 38 36 34 33 35 35 31 29 29 33 40 39 38 33 37 37 39 38 40 40 42 40
33 34 37 39 36 34 35 31 30 23 19 20 26 33 40 43 46 48 48 49 47 46 42 36 36 37 37 37 35 34 38 39 39 40 39 35 32 34 35 37 39 38 40
28 33 32 34 35 35 32 34 35 32 27 30 29 23 16 21 34 43 45 44 48 46 42 40 36 32 32 37 39 42 43 44 42 41 39 38 37 36 36 32 32 31 28
24 28 33 37 34 34 28 32 39 42 45 40 36 35 30 27 28 24 27 34 36 41 39 39 34 29 28 27 30 34 39 41 37 31 29 29 27 24 21 21 22 21 16
26 26 31 35 38 36 28 30 33 39 33 33 32 34 37 37 37 35 30 28 29 30 33 37 35 31 29 29 21 19 26 25 24 26 27 24 21 18 16 18 18 15 17
28 29 29 32 33 30 31 34 34 27 24 23 25 31 30 30 30 35 35 34 35 29 32 29 31 32 31 31 27 21 19 19 20 29 33 38 32 31 30 25 27 25 22
26 25 27 27 30 35 36 29 25 21 20 21 28 28 27 28 26 29 33 30 33 38 43 44 45 42 37 34 33 31 30 30 38 40 37 35 31 27 29 25 24 23 20
21 19 21 27 31 30 32 39 35 21 15 19 24 25 26 25 26 29 30 30 36 37 38 42 45 44 42 39 34 34 30 29 33 34 31 27 24 21 22 20 18 16 15
17 14 19 24 26 21 22 23 24 28 32 28 26 26 27 27 30 31 29 30 32 27 29 33 34 33 34 31 26 25 22 18 17 17 17 16 18 20 20 18 14 12 10
21 20 20 20 22 20 19 20 18 17 18 26 30 31 29 29 29 26 29 30 29 28 28 26 23 30 29 26 21 19 17 14 12 12 15 17 17 15 15 12 10 9 7
Wind_Direction_500mb
288 284 282 277 273 251 245 239 225 218 220 222 213 219 212 212 215 214 222 225 231 229 219 218 219 220 223 222 218 210 213 214 211 212 205 184 184 191 195 203 207 211 213
282 280 276 268 264 261 248 235 224 220 216 218 220 218 211 212 218 216 216 222 223 224 222 221 222 222 224 221 215 214 211 214 215 210 198 180 186 188 192 196 208 203 217
292 280 263 260 257 254 248 237 222 216 215 217 220 209 205 211 210 206 209 216 221 223 222 222 224 222 223 225 219 218 219 215 215 229 170 159 175 177 187 199 205 209 217
2 286 256 257 252 255 257 229 219 215 217 216 217 209 213 209 214 212 209 213 215 221 224 221 223 223 225 229 226 223 216 220 221 195 194 181 175 171 177 198 203 216 219
355 358 335 285 270 266 262 223 212 211 213 211 214 209 211 214 215 209 207 215 221 220 219 219 221 226 228 227 218 217 217 225 201 185 182 184 187 192 187 187 201 213 220
351 356 358 9 247 234 230 212 208 210 208 208 208 213 213 206 202 202 206 211 212 214 216 216 220 224 229 226 224 228 224 220 197 187 183 185 183 191 194 191 200 210 214
353 356 0 17 56 195 200 213 210 207 204 208 213 212 209 205 205 207 211 209 209 214 217 217 220 225 231 230 230 227 229 225 202 194 186 193 199 201 201 209 219 214 217
356 0 355 24 30 190 197 192 221 210 206 206 207 201 199 202 201 206 207 211 206 218 223 225 223 230 234 231 233 232 228 223 204 201 191 190 193 202 197 211 221 212 221
343 352 11 26 34 99 189 202 202 218 217 208 201 192 193 194 194 191 199 197 214 230 233 228 226 233 239 241 242 238 238 225 224 205 198 199 192 193 205 220 219 218 195
359 7 17 24 33 48 124 191 207 214 219 220 209 195 188 186 189 191 198 198 222 227 224 218 227 237 237 227 235 242 218 206 212 197 202 198 199 198 206 216 213 207 209
6 10 18 24 30 43 89 123 198 210 216 223 215 184 185 188 187 201 192 207 221 221 224 216 221 230 213 215 228 213 209 214 207 201 205 198 199 204 214 207 212 222 217
16 19 20 23 30 41 59 115 118 158 206 218 210 180 184 184 185 183 198 203 216 213 209 213 221 223 223 229 227 225 223 219 207 201 197 200 201 211 219 214 222 232 237
21 24 26 26 26 33 47 77 130 171 196 228 192 173 174 183 188 191 197 195 206 214 215 218 220 218 219 223 227 221 221 217 211 202 202 206 207 213 211 223 229 234 244
23 26 26 28 29 28 37 62 87 145 170 172 173 170 172 179 187 185 190 201 206 209 214 220 211 211 213 214 214 199 221 209 209 208 203 206 213 218 222 227 235 243 247
19 22 24 28 31 33 31 48 79 126 149 163 165 168 175 180 181 182 193 201 209 212 215 219 216 211 213 212 216 202 193 200 200 203 209 212 219 224 238 236 241 246 253
16 18 23 28 30 33 35 27 55 100 139 145 153 154 165 170 180 188 194 199 205 209 216 218 211 213 205 201 199 196 201 198 209 212 217 225 228 228 235 238 241 237 235
21 21 25 30 33 38 40 40 30 48 114 122 132 149 160 176 185 189 190 197 203 207 209 212 205 197 200 202 196 199 201 202 199 200 206 211 211 224 222 222 220 234 239
33 30 31 36 39 47 58 58 54 42 60 73 115 134 151 165 172 176 190 197 200 197 192 190 189 194 194 196 201 200 203 197 195 197 196 198 208 213 220 220 212 230 230
42 39 36 43 46 48 55 74 76 72 70 66 63 69 81 121 139 151 159 157 165 168 171 175 172 180 185 194 196 195 185 182 181 182 186 190 196 203 216 218 222 222 223
50 45 42 47 51 51 55 65 75 84 82 80 82 85 82 94 87 91 126 141 153 149 149 157 157 150 157 155 168 178 178 173 171 172 174 176 185 179 180 197 205 215 213
60 57 49 49 51 53 62 64 67 66 75 91 94 96 98 96 96 95 96 100 113 124 124 125 123 123 125 125 131 142 144 143 141 133 128 135 144 152 165 177 173 164 155
77 76 73 63 57 53 57 61 60 64 72 82 93 89 95 95 102 106 108 112 113 114 113 116 113 109 111 116 121 123 132 138 142 129 126 120 119 122 119 133 119 116 122
71 70 70 65 59 57 53 54 49 56 73 90 92 92 89 92 98 103 110 116 112 114 114 112 108 105 105 104 107 107 113 125 128 127 122 115 115 111 116 114 116 121 123
73 72 74 72 66 58 54 50 49 58 72 86 92 100 101 104 102 102 107 111 111 111 110 110 108 107 105 107 111 114 112 112 113 117 120 119 116 119 115 114 112 115 109
72 76 80 78 73 66 65 64 53 51 70 84 91 96 103 106 108 108 108 112 108 112 119 118 121 125 123 117 117 111 114 119 115 118 112 108 106 109 106 101 97 89 82
77 82 84 83 79 74 71 67 59 50 64 79 81 85 89 92 94 102 112 112 114 120 119 120 126 131 127 130 136 128 126 115 96 116 120 117 112 108 102 104 99 89 78
Wind_Speed_850mb
84 84 76 69 59 79 88 86 75 81 84 81 73 71 71 70 62 57 54 50 45 44 48 49 46 47 51 53 54 62 62 60 59 52 65 62 62 52 39 34 30 23 19
87 91 87 69 66 52 79 86 84 74 83 91 90 79 71 67 61 63 60 53 49 48 49 50 50 49 50 52 55 62 60 62 63 59 80 48 61 58 43 41 32 27 23
68 85 81 73 67 62 53 77 86 75 95 99 91 75 62 61 57 56 60 59 56 53 51 48 50 52 55 57 57 66 65 68 68 65 57 41 28 59 47 40 38 35 28
54 36 48 61 62 66 54 72 85 86 97 104 94 77 70 73 65 59 58 54 56 55 53 53 50 50 55 58 58 62 69 66 61 79 81 53 60 54 36 48 47 39 40
54 47 30 28 36 39 47 75 89 90 98 98 89 76 68 69 58 49 48 50 56 52 48 51 51 52 52 53 56 62 65 59 83 89 79 57 59 60 51 51 58 53 50
64 54 45 19 7 26 43 82 93 90 99 91 83 72 68 62 53 48 48 44 45 46 47 48 50 49 51 55 54 57 65 70 84 85 86 72 60 64 51 38 59 61 56
61 61 63 39 9 29 53 67 84 89 82 85 72 67 61 55 49 45 42 43 44 42 44 46 48 49 50 55 54 58 61 75 93 94 81 80 58 55 53 34 51 68 60
59 55 53 47 23 12 58 54 63 78 83 78 70 59 50 47 41 42 39 36 35 38 42 46 48 49 48 50 54 62 69 81 88 95 85 75 64 48 48 55 48 38 63
52 52 52 49 39 12 44 64 76 88 77 73 63 54 51 46 47 36 32 30 31 38 45 46 42 43 47 49 59 71 78 76 93 90 90 82 71 52 50 47 49 44 36
42 54 56 49 43 21 22 42 68 74 68 64 56 50 47 43 42 33 33 31 31 36 38 40 42 42 44 40 39 60 74 80 80 99 87 86 82 64 45 40 43 35 29
51 53 55 49 41 32 27 21 30 48 49 50 50 49 46 41 41 33 33 31 29 35 38 34 34 31 33 24 25 62 49 68 82 86 88 79 74 74 51 43 41 32 36
46 49 52 51 47 46 40 11 5 10 23 40 47 49 41 43 39 36 35 31 29 29 28 28 28 27 26 27 28 35 48 65 75 93 79 62 62 61 51 45 36 37 36
51 56 55 54 51 45 38 32 27 51 46 43 57 51 47 42 41 37 31 32 28 26 27 25 25 27 28 32 28 23 32 50 60 80 79 68 65 57 44 45 47 51 49
50 53 56 53 50 43 33 25 18 41 48 48 65 57 55 45 42 39 37 33 31 30 29 28 27 27 30 31 28 29 32 47 56 54 65 64 59 54 56 59 61 60 63
50 53 52 51 49 46 39 27 21 20 37 46 62 62 55 48 44 37 33 33 35 32 30 30 31 25 30 34 35 34 32 42 54 60 65 63 64 66 66 64 65 64 49
42 46 48 48 50 48 45 35 25 20 31 42 38 50 50 45 44 40 41 37 34 33 32 31 32 33 27 33 31 37 42 43 47 54 50 48 51 52 52 53 47 40 37
35 41 45 46 42 40 40 39 32 19 20 31 37 45 48 46 50 52 54 42 40 38 36 34 33 35 35 31 29 29 33 40 39 38 33 37 37 39 38 40 40 42 40
33 34 37 39 36 34 35 31 30 23 19 20 26 33 40 43 46 48 48 49 47 46 42 36 36 37 37 37 35 34 38 39 39 40 39 35 32 34 35 37 39 38 40
28 33 32 34 35 35 32 34 35 32 27 30 29 23 16 21 34 43 45 44 48 46 42 40 36 32 32 37 39 42 43 44 42 41 39 38 37 36 36 32 32 31 28
24 28 33 37 34 34 28 32 39 42 45 40 36 35 30 27 28 24 27 34 36 41 39 39 34 29 28 27 30 34 39 41 37 31 29 29 27 24 21 21 22 21 16
26 26 31 35 38 36 28 30 33 39 33 33 32 34 37 37 37 35 30 28 29 30 33 37 35 31 29 29 21 19 26 25 24 26 27 24 21 18 16 18 18 15 17
28 29 29 32 33 30 31 34 34 27 24 23 25 31 30 30 30 35 35 34 35 29 32 29 31 32 31 31 27 21 19 19 20 29 33 38 32 31 30 25 27 25 22
26 25 27 27 30 35 36 29 25 21 20 21 28 28 27 28 26 29 33 30 33 38 43 44 45 42 37 34 33 31 30 30 38 40 37 35 31 27 29 25 24 23 20
21 19 21 27 31 30 32 39 35 21 15 19 24 25 26 25 26 29 30 30 36 37 38 42 45 44 42 39 34 34 30 29 33 34 31 27 24 21 22 20 18 16 15
17 14 19 24 26 21 22 23 24 28 32 28 26 26 27 27 30 31 29 30 32 27 29 33 34 33 34 31 26 25 22 18 17 17 17 16 18 20 20 18 14 12 10
21 20 20 20 22 20 19 20 18 17 18 26 30 31 29 29 29 26 29 30 29 28 28 26 23 30 29 26 21 19 17 14 12 12 15 17 17 15 15 12 10 9 7
Wind_Direction_850mb
288 284 282 277 273 251 245 239 225 218 220 222 213 219 212 212 215 214 222 225 231 229 219 218 219 220 223 222 218 210 213 214 211 212 205 184 184 191 195 203 207 211 213
282 280 276 268 264 261 248 235 224 220 216 218 220 218 211 212 218 216 216 222 223 224 222 221 222 222 224 221 215 214 211 214 215 210 198 180 186 188 192 196 208 203 217
292 280 263 260 257 254 248 237 222 216 215 217 220 209 205 211 210 206 209 216 221 223 222 222 224 222 223 225 219 218 219 215 215 229 170 159 175 177 187 199 205 209 217
2 286 256 257 252 255 257 229 219 215 217 216 217 209 213 209 214 212 209 213 215 221 224 221 223 223 225 229 226 223 216 220 221 195 194 181 175 171 177 198 203 216 219
355 358 335 285 270 266 262 223 212 211 213 211 214 209 211 214 215 209 207 215 221 220 219 219 221 226 228 227 218 217 217 225 201 185 182 184 187 192 187 187 201 213 220
351 356 358 9 247 234 230 212 208 210 208 208 208 213 213 206 202 202 206 211 212 214 216 216 220 224 229 226 224 228 224 220 197 187 183 185 183 191 194 191 200 210 214
353 356 0 17 56 195 200 213 210 207 204 208 213 212 209 205 205 207 211 209 209 214 217 217 220 225 231 230 230 227 229 225 202 194 186 193 199 201 201 209 219 214 217
356 0 355 24 30 190 197 192 221 210 206 206 207 201 199 202 201 206 207 211 206 218 223 225 223 230 234 231 233 232 228 223 204 201 191 190 193 202 197 211 221 212 221
343 352 11 26 34 99 189 202 202 218 217 208 201 192 193 194 194 191 199 197 214 230 233 228 226 233 239 241 242 238 238 225 224 205 198 199 192 193 205 220 219 218 195
359 7 17 24 33 48 124 191 207 214 219 220 209 195 188 186 189 191 198 198 222 227 224 218 227 237 237 227 235 242 218 206 212 197 202 198 199 198 206 216 213 207 209
6 10 18 24 30 43 89 123 198 210 216 223 215 184 185 188 187 201 192 207 221 221 224 216 221 230 213 215 228 213 209 214 207 201 205 198 199 204 214 207 212 222 217
16 19 20 23 30 41 59 115 118 158 206 218 210 180 184 184 185 183 198 203 216 213 209 213 221 223 223 229 227 225 223 219 207 201 197 200 201 211 219 214 222 232 237
21 24 26 26 26 33 47 77 130 171 196 228 192 173 174 183 188 191 197 195 206 214 215 218 220 218 219 223 227 221 221 217 211 202 202 206 207 213 211 223 229 234 244
23 26 26 28 29 28 37 62 87 145 170 172 173 170 172 179 187 185 190 201 206 209 214 220 211 211 213 214 214 199 221 209 209 208 203 206 213 218 222 227 235 243 247
19 22 24 28 31 33 31 48 79 126 149 163 165 168 175 180 181 182 193 201 209 212 215 219 216 211 213 212 216 202 193 200 200 203 209 212 219 224 238 236 241 246 253
16 18 23 28 30 33 35 27 55 100 139 145 153 154 165 170 180 188 194 199 205 209 216 218 211 213 205 201 199 196 201 198 209 212 217 225 228 228 235 238 241 237 235
21 21 25 30 33 38 40 40 30 48 114 122 132 149 160 176 185 189 190 197 203 207 209 212 205 197 200 202 196 199 201 202 199 200 206 211 211 224 222 222 220 234 239
33 30 31 36 39 47 58 58 54 42 60 73 115 134 151 165 172 176 190 197 200 197 192 190 189 194 194 196 201 200 203 197 195 197 196 198 208 213 220 220 212 230 230
42 39 36 43 46 48 55 74 76 72 70 66 63 69 81 121 139 151 159 157 165 168 171 175 172 180 185 194 196 195 185 182 181 182 186 190 196 203 216 218 222 222 223
50 45 42 47 51 51 55 65 75 84 82 80 82 85 82 94 87 91 126 141 153 149 149 157 157 150 157 155 168 178 178 173 171 172 174 176 185 179 180 197 205 215 213
60 57 49 49 51 53 62 64 67 66 75 91 94 96 98 96 96 95 96 100 113 124 124 125 123 123 125 125 131 142 144 143 141 133 128 135 144 152 165 177 173 164 155
77 76 73 63 57 53 57 61 60 64 72 82 93 89 95 95 102 106 108 112 113 114 113 116 113 109 111 116 121 123 132 138 142 129 126 120 119 122 119 133 119 116 122
71 70 70 65 59 57 53 54 49 56 73 90 92 92 89 92 98 103 110 116 112 114 114 112 108 105 105 104 107 107 113 125 128 127 122 115 115 111 116 114 116 121 123
73 72 74 72 66 58 54 50 49 58 72 86 92 100 101 104 102 102 107 111 111 111 110 110 108 107 105 107 111 114 112 112 113 117 120 119 116 119 115 114 112 115 109
72 76 80 78 73 66 65 64 53 51 70 84 91 96 103 106 108 108 108 112 108 112 119 118 121 125 123 117 117 111 114 119 115 118 112 108 106 109 106 101 97 89 82
77 82 84 83 79 74 71 67 59 50 64 79 81 85 89 92 94 102 112 112 114 120 119 120 126 131 127 130 136 128 126 115 96 116 120 117 112 108 102 104 99 89 78